Location: DaVinci Observatory
(43.1080°N, 78.6453°W)
Time: 14:57:57
(UTC-05:00)

Tiangong 2 - Pass Details

Date: 13 October 2017
Orbit: 386 x 390 km, 42.8° (Epoch: 15 December)

Event Time Altitude Azimuth Distance (km) Brightness Sun altitude
Exits shadow 05:52:08 63° 238° (WSW) 439 1.0 -17.9°
Maximum altitude 05:52:32 78° 174° (S) 403 1.0 -17.8°
Drops below altitude 10° 05:55:46 10° 86° (E) 1,425 5.3 -17.3°
Sets 05:57:51 0° 85° (E) 2,283 6.8 -16.9°
